Paradise — 3FOB5 — position and weather

sailwx.info

Track history (hours):
 
Tides and Currents Weather Stations Pressure Air Temp Water Temp Dewpoint Dewpoint Depression Visibility Wind Speed Wind Dir Waves Ship Positions

Paradise

Operator: Carnival Cruise Lines

Last reported at 2018-Feb-24 08:59 UTC. Time now 2018-Feb-24 12:19 UTC.
Position N 26°12' W 079°18'.

Type: Ship. MMSI: 355833000.

Date/timePositionNaut miles runAvg speedWind from/ knotsBaromVisibWave heightAir tempDewpointWater temp
2018-Feb-24 08:59N 26°12' W 079°18'815.7
2018-Feb-24 08:30N 26°06' W 079°24'916.9
2018-Feb-24 08:00N 25°59' W 079°29'917.7
2018-Feb-24 07:30N 25°51' W 079°33'917.9
2018-Feb-24 07:00N 25°42' W 079°35'918.4
2018-Feb-24 06:30N 25°33' W 079°34'21011.4
2018-Feb-23 12:00N 25°00' W 083°24'16217.8 090 / 281024.010.8 26.020.225.0
2018-Feb-23 02:54N 27°37' W 082°39'715.6
2018-Feb-23 02:28N 27°42' W 082°34'714.2
2018-Feb-23 02:00N 27°47' W 082°30'612.5
2018-Feb-23 01:30N 27°53' W 082°26'4 7.1
2018-Feb-23 01:00N 27°56' W 082°27'0 0.4
2018-Feb-23 00:30N 27°57' W 082°27'0 0.0
2018-Feb-23 00:00N 27°57' W 082°27'0 0.0
2018-Feb-22 23:29N 27°57' W 082°27'0 0.0
2018-Feb-22 22:59N 27°57' W 082°27'0 0.0
2018-Feb-22 22:29N 27°57' W 082°27'0 0.0
2018-Feb-22 21:59N 27°57' W 082°27'0 0.0
2018-Feb-22 21:28N 27°57' W 082°27'0 0.0
2018-Feb-22 20:58N 27°57' W 082°27'0 0.0
2018-Feb-22 20:28N 27°57' W 082°27'0 0.0
2018-Feb-22 19:58N 27°57' W 082°27'0 0.0
2018-Feb-22 19:28N 27°57' W 082°27'0 0.0
2018-Feb-22 19:00N 27°57' W 082°27'0 0.0
2018-Feb-22 18:30N 27°57' W 082°27'0 0.0
2018-Feb-22 18:00N 27°57' W 082°27'0 0.0
2018-Feb-22 17:30N 27°57' W 082°27'0 0.3
2018-Feb-22 17:00N 27°57' W 082°27'0 0.0
2018-Feb-22 16:29N 27°57' W 082°27'0 0.0
2018-Feb-22 16:00N 27°57' W 082°27'0 0.0
2018-Feb-22 15:30N 27°57' W 082°27'0 0.0
2018-Feb-22 14:56N 27°57' W 082°27'0 0.0
2018-Feb-22 14:29N 27°57' W 082°27'0 0.0
2018-Feb-22 14:00N 27°57' W 082°27'0 0.0
2018-Feb-22 13:30N 27°57' W 082°27'0 0.0
2018-Feb-22 13:00N 27°57' W 082°27'0 0.0
2018-Feb-22 12:30N 27°57' W 082°27'0 0.0
2018-Feb-22 11:58N 27°57' W 082°27'0 0.3
2018-Feb-22 11:30N 27°57' W 082°27'1 2.5
2018-Feb-22 11:00N 27°55' W 082°27'3 6.3
2018-Feb-22 10:30N 27°52' W 082°27'612.5
2018-Feb-22 10:01N 27°47' W 082°31'714.0
2018-Feb-22 09:30N 27°41' W 082°35'24111.2
2018-Feb-21 12:00N 24°18' W 085°00'   110 / 251022.010.8 23.018.522.0
2018-Feb-18 12:00N 24°18' W 082°30'10116.9 050 / 181021.010.8 23.020.125.0
2018-Feb-18 06:00N 25°54' W 083°06'9721.2 050 / 61022.0 5.4 23.018.522.0
2018-Feb-18 01:24N 27°31' W 083°01'1415.9
2018-Feb-18 00:32N 27°37' W 082°47'517.6
2018-Feb-18 00:14N 27°37' W 082°41'716.1
2018-Feb-17 23:48N 27°41' W 082°35'515.4
2018-Feb-17 23:30N 27°44' W 082°32'713.0
2018-Feb-17 23:00N 27°49' W 082°27'511.1
2018-Feb-17 22:30N 27°55' W 082°27'2 3.2
2018-Feb-17 21:59N 27°57' W 082°27'0 0.0
2018-Feb-17 21:26N 27°57' W 082°27'0 0.0
2018-Feb-17 20:58N 27°57' W 082°27'0 0.0
2018-Feb-17 20:28N 27°57' W 082°27'0 0.0
2018-Feb-17 19:58N 27°57' W 082°27'0 0.0
2018-Feb-17 19:28N 27°57' W 082°27'0 0.0
2018-Feb-17 19:01N 27°57' W 082°27'0 0.0
2018-Feb-17 18:30N 27°57' W 082°27'0 0.0
2018-Feb-17 18:00N 27°57' W 082°27'0 0.0
2018-Feb-17 17:30N 27°57' W 082°27'0 0.0
2018-Feb-17 17:00N 27°57' W 082°27'0 0.0
2018-Feb-17 16:29N 27°57' W 082°27'0 0.0
2018-Feb-17 15:59N 27°57' W 082°27'0 0.0
2018-Feb-17 15:29N 27°57' W 082°27'0 0.0
2018-Feb-17 14:59N 27°57' W 082°27'0 0.0
2018-Feb-17 14:29N 27°57' W 082°27'0 0.0
2018-Feb-17 13:58N 27°57' W 082°27'0 0.0
2018-Feb-17 13:21N 27°57' W 082°27'0 0.0
2018-Feb-17 12:58N 27°57' W 082°27'0 0.0
2018-Feb-17 12:28N 27°57' W 082°27'0 0.0
2018-Feb-17 12:00N 27°57' W 082°27'0 0.0
2018-Feb-17 11:30N 27°57' W 082°27'0 0.0
2018-Feb-17 11:00N 27°57' W 082°27'0 0.0
2018-Feb-17 10:30N 27°57' W 082°27'0 0.0
2018-Feb-17 10:00N 27°57' W 082°27'0 0.0
2018-Feb-17 09:30N 27°57' W 082°27'1 1.2
2018-Feb-17 09:00N 27°56' W 082°27'1 2.7
2018-Feb-17 08:30N 27°55' W 082°26'5 9.0
2018-Feb-17 08:00N 27°50' W 082°27'611.1
2018-Feb-17 07:30N 27°46' W 082°31'611.8
2018-Feb-17 07:00N 27°41' W 082°34'715.1
2018-Feb-17 06:30N 27°37' W 082°41'14815.5
2018-Feb-16 21:00N 25°30' W 084°06'10517.6 080 / 51020.010.8 25.020.724.0
2018-Feb-16 15:00N 23°54' W 084°54'14816.4 100 / 151022.010.8 26.020.226.0
2018-Feb-16 06:00N 21°42' W 086°06'8018.1 090 / 221021.010.8 25.015.826.0
2018-Feb-16 01:35N 20°37' W 086°55'318.3
2018-Feb-16 01:27N 20°35' W 086°57'613.2
2018-Feb-16 00:59N 20°29' W 086°59'0 0.7
2018-Feb-16 00:28N 20°29' W 086°59'0 0.0
2018-Feb-15 23:58N 20°29' W 086°59'0 0.0
2018-Feb-15 23:30N 20°29' W 086°59'0 0.0
2018-Feb-15 23:00N 20°29' W 086°59'0 0.0
2018-Feb-15 22:30N 20°29' W 086°59'0 0.0
2018-Feb-15 22:00N 20°29' W 086°59'0 0.0
2018-Feb-15 21:29N 20°29' W 086°59'0 0.0
2018-Feb-15 20:59N 20°29' W 086°59'0 0.0
2018-Feb-15 20:29N 20°29' W 086°59'0 0.0
2018-Feb-15 19:59N 20°29' W 086°59'0 0.0
2018-Feb-15 19:29N 20°29' W 086°59'0 0.0
2018-Feb-15 18:58N 20°29' W 086°59'0 0.0
2018-Feb-15 18:28N 20°29' W 086°59'0 0.0
2018-Feb-15 17:58N 20°29' W 086°59'0 0.0
2018-Feb-15 17:28N 20°29' W 086°59'0 0.0
2018-Feb-15 16:58N 20°29' W 086°59'0 0.0
2018-Feb-15 16:30N 20°29' W 086°59'0 0.0
2018-Feb-15 16:00N 20°29' W 086°59'0 0.0
2018-Feb-15 15:30N 20°29' W 086°59'0 0.0
2018-Feb-15 15:00N 20°29' W 086°59'0 1.0
2018-Feb-15 14:31N 20°29' W 086°59'5 9.4
2018-Feb-15 14:00N 20°34' W 086°57'4816.0
2018-Feb-15 11:00N 20°30' W 086°06'10617.6 080 / 221022.010.8 26.023.225.0
2018-Feb-15 05:00N 20°00' W 084°18'15319.1 090 / 251023.010.8 25.020.726.0
2018-Feb-14 21:00N 19°18' W 081°42'   060 / 251022.010.8 26.020.225.0
Track history (hours):
 
Tides and Currents Weather Stations Pressure Air Temp Water Temp Dewpoint Dewpoint Depression Visibility Wind Speed Wind Dir Waves Ship Positions

Paradise

Operator: Carnival Cruise Lines

Last reported at 2018-Feb-24 08:59 UTC. Time now 2018-Feb-24 12:19 UTC.
Position N 26°12' W 079°18'.

Type: Ship. MMSI: 355833000.

Date/timePositionNaut miles runAvg speedWind from/ knotsBaromVisibWave heightAir tempDewpointWater temp
2018-Feb-24 08:59N 26°12' W 079°18'815.7
2018-Feb-24 08:30N 26°06' W 079°24'916.9
2018-Feb-24 08:00N 25°59' W 079°29'917.7
2018-Feb-24 07:30N 25°51' W 079°33'917.9
2018-Feb-24 07:00N 25°42' W 079°35'918.4
2018-Feb-24 06:30N 25°33' W 079°34'21011.4
2018-Feb-23 12:00N 25°00' W 083°24'16217.8 090 / 281024.010.8 26.020.225.0
2018-Feb-23 02:54N 27°37' W 082°39'715.6
2018-Feb-23 02:28N 27°42' W 082°34'714.2
2018-Feb-23 02:00N 27°47' W 082°30'612.5
2018-Feb-23 01:30N 27°53' W 082°26'4 7.1
2018-Feb-23 01:00N 27°56' W 082°27'0 0.4
2018-Feb-23 00:30N 27°57' W 082°27'0 0.0
2018-Feb-23 00:00N 27°57' W 082°27'0 0.0
2018-Feb-22 23:29N 27°57' W 082°27'0 0.0
2018-Feb-22 22:59N 27°57' W 082°27'0 0.0
2018-Feb-22 22:29N 27°57' W 082°27'0 0.0
2018-Feb-22 21:59N 27°57' W 082°27'0 0.0
2018-Feb-22 21:28N 27°57' W 082°27'0 0.0
2018-Feb-22 20:58N 27°57' W 082°27'0 0.0
2018-Feb-22 20:28N 27°57' W 082°27'0 0.0
2018-Feb-22 19:58N 27°57' W 082°27'0 0.0
2018-Feb-22 19:28N 27°57' W 082°27'0 0.0
2018-Feb-22 19:00N 27°57' W 082°27'0 0.0
2018-Feb-22 18:30N 27°57' W 082°27'0 0.0
2018-Feb-22 18:00N 27°57' W 082°27'0 0.0
2018-Feb-22 17:30N 27°57' W 082°27'0 0.3
2018-Feb-22 17:00N 27°57' W 082°27'0 0.0
2018-Feb-22 16:29N 27°57' W 082°27'0 0.0
2018-Feb-22 16:00N 27°57' W 082°27'0 0.0
2018-Feb-22 15:30N 27°57' W 082°27'0 0.0
2018-Feb-22 14:56N 27°57' W 082°27'0 0.0
2018-Feb-22 14:29N 27°57' W 082°27'0 0.0
2018-Feb-22 14:00N 27°57' W 082°27'0 0.0
2018-Feb-22 13:30N 27°57' W 082°27'0 0.0
2018-Feb-22 13:00N 27°57' W 082°27'0 0.0
2018-Feb-22 12:30N 27°57' W 082°27'0 0.0
2018-Feb-22 11:58N 27°57' W 082°27'0 0.3
2018-Feb-22 11:30N 27°57' W 082°27'1 2.5
2018-Feb-22 11:00N 27°55' W 082°27'3 6.3
2018-Feb-22 10:30N 27°52' W 082°27'612.5
2018-Feb-22 10:01N 27°47' W 082°31'714.0
2018-Feb-22 09:30N 27°41' W 082°35'24111.2
2018-Feb-21 12:00N 24°18' W 085°00'   110 / 251022.010.8 23.018.522.0
2018-Feb-18 12:00N 24°18' W 082°30'10116.9 050 / 181021.010.8 23.020.125.0
2018-Feb-18 06:00N 25°54' W 083°06'9721.2 050 / 61022.0 5.4 23.018.522.0
2018-Feb-18 01:24N 27°31' W 083°01'1415.9
2018-Feb-18 00:32N 27°37' W 082°47'517.6
2018-Feb-18 00:14N 27°37' W 082°41'716.1
2018-Feb-17 23:48N 27°41' W 082°35'515.4
2018-Feb-17 23:30N 27°44' W 082°32'713.0
2018-Feb-17 23:00N 27°49' W 082°27'511.1
2018-Feb-17 22:30N 27°55' W 082°27'2 3.2
2018-Feb-17 21:59N 27°57' W 082°27'0 0.0
2018-Feb-17 21:26N 27°57' W 082°27'0 0.0
2018-Feb-17 20:58N 27°57' W 082°27'0 0.0
2018-Feb-17 20:28N 27°57' W 082°27'0 0.0
2018-Feb-17 19:58N 27°57' W 082°27'0 0.0
2018-Feb-17 19:28N 27°57' W 082°27'0 0.0
2018-Feb-17 19:01N 27°57' W 082°27'0 0.0
2018-Feb-17 18:30N 27°57' W 082°27'0 0.0
2018-Feb-17 18:00N 27°57' W 082°27'0 0.0
2018-Feb-17 17:30N 27°57' W 082°27'0 0.0
2018-Feb-17 17:00N 27°57' W 082°27'0 0.0
2018-Feb-17 16:29N 27°57' W 082°27'0 0.0
2018-Feb-17 15:59N 27°57' W 082°27'0 0.0
2018-Feb-17 15:29N 27°57' W 082°27'0 0.0
2018-Feb-17 14:59N 27°57' W 082°27'0 0.0
2018-Feb-17 14:29N 27°57' W 082°27'0 0.0
2018-Feb-17 13:58N 27°57' W 082°27'0 0.0
2018-Feb-17 13:21N 27°57' W 082°27'0 0.0
2018-Feb-17 12:58N 27°57' W 082°27'0 0.0
2018-Feb-17 12:28N 27°57' W 082°27'0 0.0
2018-Feb-17 12:00N 27°57' W 082°27'0 0.0
2018-Feb-17 11:30N 27°57' W 082°27'0 0.0
2018-Feb-17 11:00N 27°57' W 082°27'0 0.0
2018-Feb-17 10:30N 27°57' W 082°27'0 0.0
2018-Feb-17 10:00N 27°57' W 082°27'0 0.0
2018-Feb-17 09:30N 27°57' W 082°27'1 1.2
2018-Feb-17 09:00N 27°56' W 082°27'1 2.7
2018-Feb-17 08:30N 27°55' W 082°26'5 9.0
2018-Feb-17 08:00N 27°50' W 082°27'611.1
2018-Feb-17 07:30N 27°46' W 082°31'611.8
2018-Feb-17 07:00N 27°41' W 082°34'715.1
2018-Feb-17 06:30N 27°37' W 082°41'14815.5
2018-Feb-16 21:00N 25°30' W 084°06'10517.6 080 / 51020.010.8 25.020.724.0
2018-Feb-16 15:00N 23°54' W 084°54'14816.4 100 / 151022.010.8 26.020.226.0
2018-Feb-16 06:00N 21°42' W 086°06'8018.1 090 / 221021.010.8 25.015.826.0
2018-Feb-16 01:35N 20°37' W 086°55'318.3
2018-Feb-16 01:27N 20°35' W 086°57'613.2
2018-Feb-16 00:59N 20°29' W 086°59'0 0.7
2018-Feb-16 00:28N 20°29' W 086°59'0 0.0
2018-Feb-15 23:58N 20°29' W 086°59'0 0.0
2018-Feb-15 23:30N 20°29' W 086°59'0 0.0
2018-Feb-15 23:00N 20°29' W 086°59'0 0.0
2018-Feb-15 22:30N 20°29' W 086°59'0 0.0
2018-Feb-15 22:00N 20°29' W 086°59'0 0.0
2018-Feb-15 21:29N 20°29' W 086°59'0 0.0
2018-Feb-15 20:59N 20°29' W 086°59'0 0.0
2018-Feb-15 20:29N 20°29' W 086°59'0 0.0
2018-Feb-15 19:59N 20°29' W 086°59'0 0.0
2018-Feb-15 19:29N 20°29' W 086°59'0 0.0
2018-Feb-15 18:58N 20°29' W 086°59'0 0.0
2018-Feb-15 18:28N 20°29' W 086°59'0 0.0
2018-Feb-15 17:58N 20°29' W 086°59'0 0.0
2018-Feb-15 17:28N 20°29' W 086°59'0 0.0
2018-Feb-15 16:58N 20°29' W 086°59'0 0.0
2018-Feb-15 16:30N 20°29' W 086°59'0 0.0
2018-Feb-15 16:00N 20°29' W 086°59'0 0.0
2018-Feb-15 15:30N 20°29' W 086°59'0 0.0
2018-Feb-15 15:00N 20°29' W 086°59'0 1.0
2018-Feb-15 14:31N 20°29' W 086°59'5 9.4
2018-Feb-15 14:00N 20°34' W 086°57'4816.0
2018-Feb-15 11:00N 20°30' W 086°06'10617.6 080 / 221022.010.8 26.023.225.0
2018-Feb-15 05:00N 20°00' W 084°18'15319.1 090 / 251023.010.8 25.020.726.0
2018-Feb-14 21:00N 19°18' W 081°42'   060 / 251022.010.8 26.020.225.0

Dump ship's entire track history